Theta_e
354 351 349 348 346 343 339 333 313 324 322 313 314 316 315 330 331 327 328 330 326 333 338 337 335 334 330 327 327 329 331 323 322 310 306 329 348 349 351 352 353 353 351 351 352 356 358 360 365 364 364 365 365 365 365 365 365 365 365 365 365 365 365 364 364 365 364 365 364 363 363 363 362 362 362 362 363 363 362 360 361 361 361 361 362 360 361 361 361 361 362 362 361 361 362 361 361
351 349 349 348 343 339 329 329 312 313 317 313 314 319 321 328 328 325 325 328 330 334 338 336 336 337 337 333 332 332 329 333 335 332 337 345 349 349 352 353 353 351 351 352 353 356 358 360 365 365 364 364 365 365 365 364 365 365 365 365 365 365 365 365 365 365 365 365 364 364 363 363 363 362 362 363 363 362 362 360 360 360 360 360 360 361 360 361 360 360 361 361 360 359 358 360 361
350 349 346 347 343 339 334 329 313 315 311 308 313 319 330 324 325 328 330 332 334 337 337 336 338 338 336 336 327 328 320 337 336 338 339 347 342 346 352 354 354 353 352 353 355 357 358 362 364 365 364 364 365 365 365 365 365 365 366 366 365 365 365 365 365 365 365 365 364 364 363 363 362 363 363 362 361 361 361 360 361 360 360 360 361 361 360 360 359 360 360 360 359 358 359 359 359
350 349 342 341 329 334 322 322 317 315 311 312 312 322 324 327 327 331 333 336 337 335 335 333 330 339 335 326 328 334 331 331 338 338 337 342 343 350 352 354 356 355 355 356 357 358 359 363 365 365 365 365 365 365 365 365 365 366 366 365 365 365 365 364 365 365 364 364 364 364 363 363 362 361 361 360 360 361 359 360 361 358 361 361 360 361 360 359 360 360 359 357 355 356 359 359 357
348 349 347 338 329 322 324 322 320 319 310 313 311 323 326 329 328 332 334 338 336 335 336 335 330 335 341 333 335 327 329 337 339 342 341 346 351 352 353 355 356 355 355 357 358 358 360 364 365 364 364 365 365 365 365 365 365 365 365 365 364 364 364 364 364 365 365 364 364 363 363 363 361 360 359 360 362 361 360 358 360 360 361 361 360 360 360 359 359 359 358 357 357 358 358 357 358
346 345 349 344 327 337 331 318 316 315 319 323 318 322 329 332 330 333 334 336 338 337 337 336 330 330 331 333 337 331 337 328 339 341 344 345 351 353 354 356 355 355 357 358 358 358 360 365 364 365 365 364 364 365 365 365 365 365 365 364 364 364 364 364 364 364 364 364 363 363 363 363 362 360 360 360 361 361 359 361 361 361 361 362 361 362 360 360 360 360 356 356 357 359 358 356 356
340 342 342 339 332 334 317 316 315 316 320 327 324 327 329 332 333 334 332 331 334 336 339 333 335 333 328 335 338 341 345 343 340 341 347 349 352 354 355 355 355 355 356 357 357 358 360 365 364 364 364 364 365 365 365 365 365 365 364 364 364 364 364 364 364 364 363 364 363 361 362 362 361 361 361 361 361 362 361 361 362 361 360 361 361 360 360 359 359 358 359 358 358 358 358 358 357
352 339 335 322 319 325 317 317 317 319 321 328 330 328 332 334 334 334 331 330 327 329 335 336 337 331 329 339 328 341 346 347 346 349 351 352 353 354 355 355 354 355 357 357 358 360 364 364 364 364 365 365 365 365 365 364 364 364 363 363 363 363 364 363 364 364 364 363 362 362 362 362 361 361 362 361 361 361 362 362 361 360 359 359 359 361 361 361 361 359 360 360 359 359 359 357 357
346 341 338 326 319 323 318 316 316 324 325 329 331 334 336 336 335 333 331 334 334 335 334 335 335 327 329 333 332 340 343 348 349 351 351 352 353 354 355 354 354 354 356 357 359 360 360 364 363 363 364 365 365 364 364 365 364 363 362 362 363 363 363 363 363 363 363 362 363 363 363 362 361 361 361 362 361 359 362 360 360 360 359 358 362 361 360 361 359 360 358 359 360 360 359 358 357
339 338 324 323 323 313 315 315 314 320 325 330 329 330 333 335 333 336 331 331 332 334 335 339 336 329 333 328 333 339 341 348 349 349 351 352 354 354 354 354 355 355 356 357 359 359 359 364 364 363 362 364 364 364 364 364 363 363 362 362 363 363 363 363 363 362 362 362 362 363 362 361 361 361 361 362 361 361 360 360 360 360 360 361 362 359 360 361 360 359 359 359 360 360 360 360 359
328 337 338 322 316 313 312 312 316 323 326 330 330 334 335 337 335 332 333 332 336 332 333 336 331 330 332 332 334 345 347 348 346 345 351 352 353 353 353 355 356 356 355 357 359 359 359 360 364 364 363 364 364 364 364 364 363 362 362 362 363 363 363 363 363 361 361 361 362 362 361 362 361 360 360 361 360 361 361 361 361 360 360 361 361 358 359 361 361 359 359 359 359 360 361 361 360
328 327 327 317 315 313 313 313 317 322 327 326 327 332 335 337 337 330 330 329 332 332 331 336 329 335 329 330 332 342 345 345 346 349 351 353 352 353 353 354 355 356 357 358 360 358 357 359 360 362 363 364 363 364 364 363 362 363 362 361 362 363 364 363 362 361 361 361 361 362 362 361 361 360 361 361 360 360 360 360 359 361 360 361 361 360 360 360 360 360 360 359 359 360 361 360 360
329 329 323 319 316 314 316 317 318 324 322 325 327 333 339 337 334 332 332 332 333 331 330 338 337 336 326 329 339 342 341 344 348 350 351 351 352 353 354 354 354 356 358 359 358 358 357 357 357 357 359 362 363 364 364 363 362 362 362 362 362 363 363 362 362 362 361 362 361 362 361 361 361 360 360 362 361 360 360 359 359 360 360 361 361 360 361 361 359 360 360 360 360 358 359 359 359
331 332 325 317 320 317 317 316 319 319 321 328 333 336 338 335 336 336 334 330 331 332 337 339 339 337 330 333 334 335 340 346 348 349 351 352 352 352 352 353 354 356 358 358 357 358 358 359 359 359 358 359 360 363 363 363 363 363 363 363 363 363 362 362 362 362 361 362 361 362 361 362 361 361 360 361 361 360 359 358 358 361 362 361 361 360 361 359 360 361 360 360 360 360 359 360 360
332 337 327 321 318 318 320 316 318 321 320 330 334 335 336 339 341 341 337 330 333 345 341 343 339 333 324 328 328 334 340 345 347 350 350 351 351 351 351 353 354 355 356 357 358 358 358 359 359 358 359 357 357 357 359 362 363 363 362 363 363 363 363 362 362 362 363 362 361 361 361 361 362 361 361 360 360 359 358 360 361 362 362 361 361 361 361 360 360 360 360 360 359 359 360 359 358
337 336 330 320 317 316 318 319 324 322 322 331 335 338 336 338 344 337 338 342 337 343 340 333 341 336 334 332 333 339 343 346 349 350 349 349 350 351 352 352 353 354 355 357 357 357 358 357 357 357 357 357 357 358 358 360 362 362 363 363 363 363 362 362 362 361 361 360 360 360 361 363 359 359 360 359 360 362 360 360 361 361 361 361 362 361 361 359 359 359 359 359 358 359 361 361 360
343 336 322 321 315 317 319 319 323 315 326 332 337 336 330 332 342 341 348 348 335 337 342 338 336 341 335 336 340 343 345 348 349 348 347 346 347 347 349 350 351 352 354 356 356 357 358 356 356 356 357 357 357 358 358 358 362 364 361 363 363 363 362 362 361 361 360 359 359 359 361 360 359 359 360 359 361 363 361 360 361 361 362 362 362 361 360 360 360 359 360 361 360 361 360 360 359
339 325 321 316 318 316 321 322 325 329 328 331 333 337 334 330 337 339 346 338 338 338 336 340 340 339 340 342 344 345 346 346 347 345 343 343 344 344 344 347 348 348 351 353 356 357 357 356 356 356 355 356 357 357 358 359 362 362 358 361 363 362 361 361 362 361 362 360 361 361 362 362 358 358 359 362 364 365 362 360 361 360 362 362 362 363 360 361 361 360 360 360 360 360 363 358 360
329 325 321 316 318 321 328 329 332 330 329 333 335 338 335 333 336 338 333 333 333 332 334 335 334 337 340 342 342 343 344 345 344 343 342 341 342 341 343 345 345 347 349 351 354 356 357 356 357 356 355 356 357 357 357 359 358 357 357 359 361 362 361 362 359 360 356 358 360 360 359 358 359 360 362 363 364 362 363 361 360 360 362 362 362 362 361 360 362 362 360 359 360 363 358 357 356
333 327 319 320 323 324 329 333 333 338 335 333 334 338 337 337 338 340 333 332 332 329 328 331 331 332 335 338 340 342 343 343 343 342 341 341 341 341 342 343 343 345 347 350 352 356 357 357 357 355 354 355 355 355 357 356 356 356 357 357 358 358 359 359 357 357 357 357 357 358 358 359 357 359 360 362 364 357 361 363 362 361 360 360 364 363 363 362 361 360 361 362 361 360 357 357 355
332 328 320 322 325 323 328 337 337 337 338 335 336 338 335 339 340 340 334 330 331 331 334 332 331 333 335 337 339 341 341 341 341 341 340 340 341 342 342 343 343 345 348 350 352 354 356 356 356 355 355 355 355 357 356 355 356 356 356 357 357 356 356 356 356 356 357 356 356 357 358 358 356 356 356 356 355 357 357 357 358 358 359 360 363 357 358 360 360 358 359 360 358 360 358 356 356
329 326 328 328 327 324 330 336 337 336 339 336 336 332 332 342 339 338 333 326 326 331 336 337 335 336 335 336 339 340 340 340 340 339 339 339 340 340 342 343 345 347 350 349 351 353 354 356 356 354 355 355 355 355 355 357 357 355 355 356 356 355 355 355 355 356 356 356 357 358 358 355 355 355 355 355 355 356 356 356 356 357 357 357 360 356 356 357 358 358 358 358 358 359 357 357 360
317 324 327 329 329 326 334 335 336 337 335 334 332 336 339 336 334 338 334 333 338 343 342 339 338 337 338 340 340 339 339 339 339 339 339 339 339 340 341 343 344 345 348 348 352 353 354 355 355 354 354 354 354 355 357 357 355 356 356 356 354 354 355 354 355 356 356 355 357 359 355 354 353 354 354 353 353 354 355 354 355 355 355 355 358 356 356 356 357 358 357 358 358 359 357 356 357
320 317 323 324 329 327 331 334 336 335 335 334 339 339 334 335 329 339 335 339 344 345 344 339 339 339 339 338 339 338 338 339 339 340 340 339 340 341 342 343 345 347 347 348 351 352 354 354 355 355 354 354 354 355 356 355 355 355 357 360 356 357 355 354 355 355 357 356 359 361 358 354 353 353 353 353 353 354 354 354 353 354 355 355 357 358 357 356 357 357 357 357 358 358 357 356 356
316 316 320 321 323 327 329 334 335 336 335 339 338 332 332 336 336 336 334 339 343 344 343 339 338 338 338 338 338 338 339 339 340 340 341 340 340 343 344 344 346 346 346 348 350 351 353 354 355 354 354 354 354 356 355 355 355 356 358 356 354 360 354 354 355 356 356 359 360 360 359 353 353 353 353 353 353 353 353 354 355 354 355 356 358 358 359 357 356 356 357 357 356 357 356 356 355
317 317 320 321 321 323 326 333 334 336 337 338 333 332 336 340 340 334 338 340 344 344 341 338 337 337 337 337 338 338 338 339 340 340 339 339 341 342 342 344 345 345 346 348 349 350 352 354 354 353 354 354 354 356 354 354 354 355 356 355 356 358 354 355 356 355 355 356 357 359 358 354 353 354 354 353 353 353 353 354 356 354 354 355 357 357 357 357 356 356 355 353 352 353 355 355 357
317 316 318 318 320 320 327 331 333 336 336 336 331 332 334 338 336 327 340 343 344 340 338 338 337 336 336 337 338 338 338 339 340 341 340 339 340 341 342 343 344 346 347 347 348 350 353 353 353 354 354 356 354 355 354 354 355 354 356 355 356 355 355 357 356 355 354 355 356 358 357 358 354 355 354 353 354 353 354 354 354 354 354 355 355 355 355 357 356 356 355 353 352 354 355 354 356
314 313 311 308 314 315 325 332 333 335 333 335 334 331 335 336 333 328 336 342 342 336 336 336 335 335 336 336 337 337 339 340 341 341 338 337 338 340 341 342 344 345 346 346 348 350 352 352 353 354 354 356 355 354 356 354 354 354 356 355 355 355 356 355 354 354 357 354 356 356 357 358 360 356 355 354 354 354 354 353 353 353 353 353 354 354 354 355 358 358 358 358 359 358 357 352 355
310 310 306 306 327 326 330 329 333 334 331 336 335 330 328 330 327 334 337 340 340 336 335 334 334 335 335 335 336 336 338 339 340 339 339 339 340 342 341 343 345 345 347 348 348 350 351 352 352 353 354 355 353 354 354 354 354 355 355 355 356 356 356 355 353 353 353 354 355 357 357 358 362 356 356 356 360 354 354 354 353 355 354 353 354 356 357 359 359 357 357 360 358 354 353 351 353
310 309 302 320 320 319 328 333 333 330 332 335 332 313 319 325 330 335 338 337 337 334 333 334 333 334 334 335 335 335 337 338 339 339 340 340 340 341 341 343 346 346 346 348 349 349 352 353 354 354 354 354 353 354 354 353 354 354 356 355 358 356 355 354 355 352 354 354 356 357 357 359 360 357 356 356 357 354 354 355 354 353 354 355 358 361 359 357 357 357 360 354 360 356 353 352 350
304 306 307 314 311 310 328 330 331 327 333 334 331 309 309 321 329 335 336 337 334 331 332 333 333 332 333 334 333 334 336 338 338 339 341 341 341 341 342 344 346 347 348 347 348 349 352 352 354 353 355 353 355 353 354 353 353 354 354 354 356 355 354 353 353 352 352 353 357 357 357 358 360 357 357 356 356 355 354 354 354 355 356 360 360 359 356 355 356 356 359 352 354 355 353 356 350
299 302 295 295 311 306 326 331 329 324 330 333 325 311 313 317 328 334 336 336 334 331 332 332 332 332 332 333 333 333 334 337 338 339 341 341 341 341 342 343 346 347 347 347 349 350 351 352 354 352 354 352 353 352 353 352 353 352 353 356 355 354 354 353 352 352 352 354 357 356 356 358 360 358 357 356 355 354 354 354 355 357 360 360 358 359 359 356 357 357 360 353 352 353 354 349 351
296 298 294 298 301 301 321 327 330 330 330 331 324 310 314 316 328 334 336 335 333 331 331 331 331 332 331 332 332 332 333 335 337 338 339 340 341 342 342 344 346 348 348 348 348 349 350 351 353 352 352 352 352 352 352 351 351 351 351 354 353 354 353 352 352 352 354 355 357 356 355 357 359 358 358 357 355 355 355 355 357 358 361 358 358 356 356 358 355 358 357 359 353 353 349 348 346
295 295 295 295 296 307 312 323 330 329 329 323 327 320 317 318 329 333 334 334 331 330 330 331 331 332 332 331 331 332 332 333 334 336 338 340 341 342 343 347 347 348 349 349 350 350 350 351 352 352 352 352 352 351 351 350 350 350 351 352 356 352 352 352 351 353 354 356 356 355 355 357 361 359 358 357 355 356 356 356 358 359 360 358 357 356 354 353 353 355 355 357 356 353 351 349 348
295 295 294 295 293 311 311 316 323 326 327 323 324 322 322 321 329 331 333 335 332 330 330 331 331 331 331 331 330 331 331 332 333 336 338 339 340 341 343 345 346 348 349 349 350 351 351 351 352 352 352 352 351 351 351 350 349 349 349 350 351 351 352 351 352 353 355 357 356 356 356 357 363 360 359 358 355 359 358 358 358 359 360 358 357 356 356 361 359 355 356 355 355 354 355 354 352
296 295 294 294 294 294 298 313 321 327 322 321 321 319 321 321 327 330 332 334 332 331 331 331 331 331 331 331 330 330 331 332 335 337 338 340 340 341 342 345 346 347 348 349 350 350 350 350 351 351 352 351 351 349 349 347 347 347 345 347 348 350 349 352 353 354 356 357 358 357 357 357 361 361 359 358 356 359 357 357 358 359 359 358 356 354 354 356 357 356 355 357 351 355 355 356 354
299 298 296 295 296 295 298 298 313 328 323 320 321 322 321 321 324 329 331 333 332 331 329 330 330 331 331 331 330 330 330 332 335 337 338 339 339 340 342 344 345 346 347 348 349 349 349 349 350 349 351 351 350 347 346 345 344 343 344 345 345 347 348 350 353 354 357 357 359 358 358 358 360 361 361 358 356 361 357 358 358 358 359 358 356 354 354 353 353 355 356 358 356 351 351 351 348
300 298 297 295 296 295 298 300 306 326 321 318 322 320 320 321 322 328 331 331 330 330 329 329 330 331 331 331 330 330 331 333 334 335 337 338 339 340 341 342 345 343 345 347 348 349 349 349 349 349 350 350 349 348 347 346 345 345 344 344 345 347 349 351 351 354 356 358 359 359 360 359 360 360 362 359 358 359 357 358 358 358 358 357 356 357 355 361 359 353 351 351 354 353 351 353 353
299 298 296 295 294 297 299 300 303 324 321 313 318 318 319 320 321 326 329 330 331 333 332 331 330 330 330 331 331 331 331 331 332 333 335 337 338 339 340 341 343 344 345 346 348 349 348 348 349 349 350 350 349 349 347 346 346 347 346 345 346 346 351 353 352 355 358 358 359 360 361 360 359 360 362 361 358 358 357 357 358 358 357 358 358 355 356 359 353 352 350 351 352 353 356 357 349
297 295 295 294 294 296 292 297 305 320 319 312 313 315 314 318 321 324 329 330 331 333 334 333 333 331 330 331 331 331 331 330 331 332 333 336 337 338 339 340 342 343 344 345 347 348 348 348 348 349 349 349 349 349 350 347 347 347 348 346 347 349 349 354 355 356 357 357 357 359 361 360 359 360 361 361 360 359 357 357 357 358 357 358 357 354 353 356 354 352 351 357 351 349 347 350 356
297 297 294 294 296 295 297 296 298 318 318 318 314 309 309 316 316 319 326 331 331 332 333 333 333 333 333 334 333 333 332 331 331 332 332 334 335 336 338 340 341 342 343 344 346 347 348 347 348 348 348 349 349 351 350 347 349 345 345 345 348 349 350 350 350 351 355 357 357 358 359 360 360 360 361 362 362 359 358 357 357 358 358 358 357 355 355 356 355 353 352 356 354 349 347 349 353
295 297 299 298 296 298 297 297 296 289 290 305 312 298 298 308 316 318 324 326 327 330 330 331 331 332 332 332 332 333 334 334 333 332 332 334 335 336 338 339 340 341 342 344 346 347 348 347 348 348 348 348 348 349 349 346 347 342 340 340 340 342 342 344 345 347 350 354 356 358 359 360 360 360 361 362 363 360 358 356 356 358 358 359 358 357 356 356 355 355 354 355 355 352 351 349 348
295 296 300 299 299 298 298 297 295 289 289 298 313 299 295 302 313 317 322 325 325 328 329 330 331 330 331 332 332 333 333 334 335 335 334 333 334 335 337 338 340 340 342 344 346 347 347 347 347 347 347 347 348 348 348 347 345 343 341 340 340 341 341 343 348 350 352 355 358 357 358 360 361 360 361 362 362 362 359 357 356 358 359 359 361 358 357 357 356 356 356 355 355 358 351 348 347
293 298 298 300 299 298 297 297 295 291 295 303 309 305 297 296 304 317 323 323 324 325 327 329 331 330 331 332 333 333 334 335 335 335 335 333 334 335 335 338 339 341 343 344 345 346 346 347 347 347 347 348 348 348 347 347 344 343 341 340 341 340 341 342 346 349 353 356 356 357 358 359 361 361 361 362 362 362 360 357 358 357 358 359 361 358 358 358 358 358 359 356 356 359 351 350 347
295 298 299 298 299 298 297 296 292 291 296 289 299 304 301 296 302 316 322 319 321 323 325 327 329 330 330 331 333 334 334 335 336 335 335 334 333 335 337 337 339 341 342 343 344 345 346 347 348 347 347 348 347 348 347 346 346 344 343 340 340 342 342 344 348 352 352 356 355 356 357 358 360 361 362 362 362 362 363 359 358 358 358 358 363 361 359 358 358 357 357 357 356 356 354 350 349
301 299 300 297 297 296 294 292 292 294 292 289 298 302 297 294 295 313 320 318 319 322 325 327 329 330 330 330 332 334 335 336 337 337 337 337 334 334 337 338 339 340 342 344 344 344 345 346 347 347 346 347 347 347 347 345 346 346 343 341 339 339 344 345 348 349 351 354 353 354 356 357 358 359 361 362 361 361 363 362 359 358 359 358 362 362 360 359 358 357 357 357 356 356 356 356 352
299 300 299 298 295 294 296 293 292 293 291 291 298 302 301 291 293 313 314 316 321 323 325 328 329 330 331 331 332 333 334 335 336 337 338 338 338 335 336 337 338 340 341 342 343 343 344 345 346 346 346 347 347 346 347 345 345 345 343 342 340 339 341 343 345 347 350 351 351 352 355 356 357 358 360 361 361 360 361 363 361 359 360 362 363 362 361 360 359 358 357 357 358 357 356 357 358
302 297 294 291 293 292 293 287 292 290 282 286 292 302 299 292 292 297 319 322 323 323 323 325 327 329 330 331 332 333 334 335 336 337 337 338 338 336 335 336 337 338 340 340 342 342 343 344 345 345 345 346 347 346 347 345 345 345 344 343 341 340 340 342 344 346 348 350 351 351 354 355 355 357 358 358 358 359 360 361 363 361 360 361 362 363 362 361 360 358 357 357 357 358 357 357 356
298 295 294 289 282 286 285 288 286 284 285 289 291 297 297 295 294 296 301 307 314 322 325 325 328 329 330 331 332 333 334 335 335 336 337 337 338 336 334 335 336 337 338 339 340 341 342 343 344 344 344 346 346 346 346 346 345 345 344 343 342 342 341 342 344 346 348 350 350 351 352 352 354 354 355 356 357 357 359 358 360 360 359 360 362 362 362 362 360 358 357 356 357 357 358 358 357
295 293 289 287 283 282 278 280 281 282 288 290 289 294 296 294 293 303 307 311 308 313 321 326 327 329 330 331 332 333 333 334 335 336 337 337 338 338 335 335 335 336 337 338 339 341 341 343 344 344 344 345 346 346 346 345 345 345 345 344 343 343 341 341 342 345 348 350 351 351 351 352 353 353 354 355 357 357 358 359 360 360 361 360 361 361 361 361 360 358 357 357 356 358 358 358 358
292 292 295 290 285 281 281 280 282 285 286 288 291 293 287 290 295 309 310 313 315 319 320 321 326 329 331 333 333 333 333 334 335 335 336 337 338 338 336 335 335 336 337 338 339 340 341 342 343 344 343 344 345 346 346 345 345 345 345 345 344 344 342 342 341 344 347 348 350 350 351 353 353 354 354 356 357 357 357 358 359 359 359 359 360 360 360 361 361 359 359 358 358 358 358 358 358
291 292 294 290 290 289 286 284 283 284 286 286 290 288 289 293 301 307 310 312 318 321 321 322 320 324 330 331 332 332 333 334 334 335 336 337 338 339 337 336 335 336 337 337 338 339 340 341 343 343 344 344 345 346 346 346 346 346 346 345 344 345 346 343 343 345 345 348 349 350 350 352 353 354 355 355 355 356 356 356 358 359 359 359 359 359 360 359 358 358 357 358 357 359 359 358 358
293 292 290 292 294 292 289 294 292 288 285 287 288 291 293 297 298 305 306 309 314 319 319 320 320 321 325 330 331 333 334 334 334 335 335 336 338 339 339 337 336 336 336 336 338 339 340 341 342 343 344 344 344 346 346 346 346 345 345 345 345 344 344 342 341 342 342 345 348 350 350 351 352 354 354 355 354 355 356 356 357 357 358 358 358 359 358 358 357 357 357 356 357 358 360 359 359
290 287 289 295 296 293 289 285 283 281 282 284 287 290 292 294 288 303 304 304 313 316 316 318 319 321 321 326 331 333 334 335 336 336 337 337 338 339 339 338 337 336 336 336 337 339 340 341 342 342 343 343 344 345 346 346 346 345 345 345 345 345 344 344 343 342 342 343 344 347 349 350 351 352 354 354 354 354 354 359 356 357 358 358 358 358 358 357 357 357 357 357 357 359 359 360 360
292 292 297 292 287 289 287 286 282 281 282 283 287 292 294 294 294 299 302 304 311 314 315 316 317 319 321 323 326 332 335 335 336 335 336 336 337 338 338 338 338 338 338 337 337 339 340 341 342 342 342 343 344 345 346 347 347 346 346 345 345 344 344 345 344 344 343 342 342 343 346 349 350 352 354 354 353 353 353 355 356 356 357 357 357 357 358 357 356 356 356 356 357 358 358 358 359
296 295 292 293 291 289 286 289 285 285 281 282 283 287 290 297 297 299 302 311 312 313 313 314 316 318 321 324 326 328 333 335 336 336 336 337 338 338 338 338 338 338 338 337 337 338 338 340 342 342 343 344 345 345 346 346 346 347 346 346 346 346 345 345 345 344 341 341 342 342 343 346 348 351 351 352 352 352 352 353 354 355 355 356 356 356 357 357 356 356 356 355 356 356 356 356 357
288 289 287 288 288 292 292 290 288 287 282 280 282 284 291 296 302 303 310 312 313 313 313 314 316 317 320 323 327 327 331 334 336 337 337 337 338 338 339 339 339 339 340 339 337 336 338 339 340 342 342 342 343 345 345 346 347 347 347 346 345 345 344 345 344 344 342 341 342 344 342 344 347 349 351 351 351 352 352 352 353 355 354 355 355 355 357 357 356 356 355 356 356 355 355 355 356
288 287 285 286 286 285 283 286 289 288 283 281 281 286 292 299 304 306 314 315 314 314 314 314 315 316 318 320 323 327 329 334 336 337 338 338 338 339 340 340 340 339 339 339 337 337 337 338 340 341 342 342 343 344 345 346 347 347 346 346 346 345 345 344 343 344 343 342 341 342 343 344 343 346 349 350 351 351 352 351 352 353 354 355 355 355 355 357 356 355 355 354 355 355 355 355 355
Wind_Speed
6 4 5 4 3 2 2 1 0 1 1 1 2 1 3 1 2 2 2 2 2 1 0 5 8 4 2 2 5 6 4 6 1 7 4 2 4 9 6 6 6 6 6 3 2 2 2 5 11 14 14 14 14 14 14 14 14 14 14 14 14 13 13 13 13 13 13 12 12 12 11 11 11 11 11 10 10 10 10 10 9 8 9 8 9 8 7 10 9 9 9 10 11 13 14 12 13
5 5 5 4 3 1 0 2 2 2 1 2 3 1 2 1 1 4 3 3 1 2 1 6 8 8 7 11 8 6 6 5 2 3 4 6 9 6 6 8 7 7 6 4 2 2 2 5 11 13 14 14 14 14 14 13 13 12 12 12 12 12 12 12 12 12 12 11 11 12 11 11 11 10 10 10 10 9 10 11 9 10 10 10 9 9 7 8 8 9 7 8 10 13 14 12 12
5 6 5 2 2 2 0 0 0 1 1 3 3 3 1 2 3 1 3 5 4 4 4 6 7 5 3 3 4 2 1 4 7 6 6 11 13 6 8 8 7 7 7 4 3 3 2 6 10 12 13 14 14 14 13 12 12 12 12 12 11 11 11 11 11 11 11 11 11 11 11 10 10 10 10 11 9 9 10 12 11 11 11 10 9 8 10 9 7 7 6 8 10 9 13 12 12
5 2 5 3 0 0 1 1 1 1 2 1 3 3 2 2 2 4 5 5 5 5 3 3 4 3 1 7 4 7 6 5 3 10 9 8 5 9 9 8 7 6 6 4 4 4 3 8 11 11 13 13 13 13 13 12 11 11 11 11 10 10 10 10 11 10 10 11 11 10 10 10 9 10 10 10 11 10 11 10 11 11 11 9 9 9 9 8 9 8 7 9 10 10 11 12 11
5 3 2 1 1 1 1 1 2 1 4 2 2 1 3 3 1 4 3 2 6 3 2 3 4 4 2 5 1 1 3 7 8 4 7 5 9 9 9 9 7 7 6 5 4 4 5 12 11 12 13 13 13 12 11 11 11 11 10 10 9 9 10 10 10 10 10 10 10 10 10 10 10 10 9 10 11 11 12 9 10 10 11 10 9 9 9 8 8 6 9 10 10 12 11 10 11
3 2 2 2 2 0 1 1 3 4 4 1 2 2 2 2 3 4 4 6 3 4 3 3 3 4 4 3 2 3 9 6 8 5 7 8 12 11 11 9 7 7 5 3 3 3 5 11 13 13 13 13 13 12 11 10 10 10 9 9 9 9 9 10 10 9 9 10 10 10 10 9 10 10 11 10 9 11 11 11 9 10 10 10 8 8 8 6 7 6 11 11 10 11 12 11 10
4 2 1 1 0 0 1 2 5 4 4 3 2 2 3 2 4 5 7 5 5 6 4 4 9 8 6 2 6 4 1 8 6 6 5 13 13 12 11 9 8 8 5 3 3 3 5 11 13 14 14 13 13 12 11 10 10 10 9 8 8 9 9 9 9 9 9 9 10 10 10 9 9 10 10 10 9 10 12 11 10 10 9 8 8 6 8 9 10 10 12 14 11 11 12 11 11
1 2 2 1 0 0 1 2 6 2 1 3 3 4 2 3 5 4 6 2 5 2 1 4 2 6 4 1 4 4 5 5 8 10 13 12 13 12 11 10 9 8 7 3 3 3 9 11 12 13 13 13 12 12 11 11 10 9 9 8 8 8 8 8 8 8 8 9 10 10 9 9 9 10 10 9 9 10 13 12 10 10 8 7 7 9 10 9 10 10 11 12 12 11 13 12 12
0 1 1 1 2 1 3 5 5 2 1 3 3 3 2 4 6 4 5 2 5 3 4 3 2 5 4 8 4 5 5 10 11 13 13 13 13 13 8 9 10 8 7 4 3 4 5 11 10 13 13 13 12 12 11 10 10 9 8 8 8 7 8 8 8 7 8 8 9 9 9 8 8 9 9 9 8 10 12 11 10 10 9 5 7 10 10 10 10 10 9 10 10 11 10 12 12
1 1 0 0 1 2 2 5 1 2 1 0 3 5 3 5 5 1 6 5 4 7 2 3 3 8 9 9 7 5 6 12 14 13 12 14 14 12 10 9 9 10 7 5 4 5 3 11 12 10 12 12 12 12 11 10 10 9 8 8 8 7 7 7 7 7 7 8 9 9 8 8 8 9 8 8 8 10 10 10 10 10 7 7 8 11 11 9 11 10 9 10 10 10 10 11 11
1 1 1 1 1 3 4 5 2 3 2 2 2 5 1 6 3 5 3 6 4 5 5 5 8 10 6 5 3 4 9 13 14 16 14 14 12 13 9 8 8 8 7 6 6 5 4 5 12 12 12 13 12 12 11 10 10 9 9 9 8 7 6 7 7 7 7 8 8 8 9 8 9 8 7 7 8 9 10 8 9 9 9 7 9 10 11 10 9 10 10 9 10 10 10 11 12
0 0 1 1 3 3 3 3 5 3 3 2 1 6 3 5 4 7 7 8 3 5 5 4 5 8 9 5 4 8 12 12 12 13 15 12 9 10 9 7 8 7 6 7 7 6 5 4 4 9 10 11 11 11 10 10 10 9 9 8 8 7 7 7 7 7 7 8 8 7 9 8 10 8 7 8 7 9 8 8 7 8 8 8 9 10 11 10 10 10 10 11 10 10 10 11 12
0 0 1 1 1 2 2 5 3 2 1 2 1 3 3 3 2 8 6 6 5 8 6 2 12 3 5 5 5 10 12 11 11 13 13 9 9 8 8 8 8 8 7 6 7 7 7 4 5 5 6 13 11 10 10 9 9 9 8 9 8 8 8 7 7 7 7 7 8 8 9 9 10 8 8 7 7 8 8 8 7 8 9 9 9 10 11 10 11 8 10 11 11 10 10 11 11
1 1 2 2 1 2 2 3 2 3 3 3 1 6 2 0 2 4 7 8 7 3 4 11 5 8 9 8 7 8 9 12 13 12 9 10 9 9 9 8 8 7 7 7 7 7 6 6 6 6 7 5 4 7 9 9 9 9 9 8 8 8 7 7 7 7 7 7 7 8 8 10 8 8 8 7 6 7 10 8 7 8 9 9 9 12 11 11 9 10 9 10 10 10 10 10 10
2 0 0 2 2 2 3 1 1 1 2 3 3 4 3 2 2 3 2 9 3 1 7 5 6 5 6 9 9 9 11 13 13 11 11 10 10 9 9 8 8 7 6 7 7 8 8 7 5 4 3 3 3 3 3 6 9 9 9 9 8 8 7 7 7 6 7 7 7 7 7 11 9 8 8 8 6 7 10 9 8 9 9 9 9 13 10 12 10 9 10 9 11 10 8 9 10
2 0 1 2 3 2 3 1 0 2 1 4 4 3 6 4 2 2 2 2 3 2 5 4 3 1 7 3 9 12 14 13 11 12 12 12 10 9 9 8 7 6 5 6 7 6 6 5 4 4 4 3 3 4 3 3 7 9 8 8 8 7 7 7 7 6 5 7 6 6 7 3 9 7 8 7 7 10 9 7 9 9 9 9 10 12 11 10 10 10 9 10 11 10 9 9 10
0 1 2 1 3 2 2 1 1 1 3 5 4 5 4 5 2 3 2 0 8 2 3 2 1 3 10 5 13 16 14 12 13 13 12 9 8 8 7 6 6 5 5 7 6 5 6 5 4 4 4 4 4 4 3 2 3 8 6 7 7 7 6 7 5 6 7 7 5 7 5 4 6 5 4 4 6 5 8 9 8 9 9 9 10 10 11 10 10 11 9 11 11 11 9 9 11
1 3 1 3 3 2 3 2 3 1 6 6 7 5 7 8 4 3 2 7 4 3 4 3 7 8 9 13 14 15 13 14 14 14 11 10 8 9 8 8 7 8 7 6 6 5 5 4 4 4 4 4 4 4 3 3 2 4 4 2 2 4 5 6 4 4 5 5 6 5 4 4 5 6 3 4 3 5 6 9 8 9 9 10 8 10 10 10 11 10 10 10 9 9 9 5 6
3 1 1 4 3 5 1 1 3 4 2 8 6 2 6 6 8 5 6 6 7 7 5 9 10 11 13 14 16 14 14 14 14 12 14 14 10 11 10 8 7 7 8 6 5 6 4 4 4 5 4 4 5 3 3 3 3 3 3 3 3 5 5 4 4 4 5 5 4 4 4 4 5 4 3 4 4 7 6 9 10 9 9 9 8 10 9 10 10 9 9 8 8 9 5 5 5
5 2 3 5 4 4 3 1 3 0 8 7 7 5 5 6 3 3 5 9 7 9 9 9 12 13 14 16 15 14 14 13 12 12 13 12 10 11 11 11 8 7 6 6 6 5 5 5 5 4 4 4 4 4 3 3 3 3 3 4 4 4 4 4 4 5 5 5 4 4 4 5 4 4 6 7 6 5 5 8 10 10 10 9 10 7 8 9 9 9 10 8 5 4 4 4 4
2 3 5 4 2 1 2 2 0 4 8 8 5 4 6 5 4 5 10 9 3 5 6 13 16 17 17 17 16 14 14 14 12 12 12 10 8 7 7 8 8 7 6 5 5 6 7 7 5 4 4 4 4 4 4 3 3 4 4 4 4 4 4 4 4 4 4 5 5 4 4 4 4 4 4 4 4 4 5 5 5 5 5 5 6 5 4 4 4 4 3 4 3 3 4 3 3
0 7 4 5 5 4 2 1 4 5 4 7 5 10 7 4 4 4 12 11 9 9 6 8 16 18 19 18 15 14 14 14 13 12 12 12 12 10 8 6 5 5 6 6 7 7 8 7 6 4 5 4 4 4 4 5 4 4 4 4 4 4 4 4 4 4 4 4 4 4 4 5 4 4 4 4 4 4 4 4 4 4 5 4 3 3 3 3 3 3 3 3 2 2 3 2 2
5 5 7 7 8 7 1 3 4 7 6 6 8 4 7 6 4 3 7 1 1 4 4 10 14 18 18 17 16 14 15 14 13 13 13 12 10 9 9 8 8 8 6 6 6 6 7 8 6 5 5 4 4 4 4 4 4 4 4 4 4 4 4 4 4 4 4 4 4 4 5 4 4 4 4 4 4 3 4 4 4 3 3 3 3 3 3 3 2 3 2 2 2 3 2 2 2
6 6 2 6 4 10 6 3 6 4 9 7 3 4 8 7 9 3 5 3 3 5 5 11 12 14 17 16 16 16 15 14 13 11 11 11 11 11 10 10 7 5 6 6 7 7 7 9 7 6 5 5 4 4 4 4 4 4 4 4 4 4 4 4 4 4 4 4 4 4 4 4 4 4 4 4 3 3 3 3 3 3 3 2 2 2 3 2 2 2 2 2 2 1 1 1 2
7 8 7 8 6 8 6 5 6 5 3 5 7 7 6 4 3 7 4 4 3 6 5 11 13 15 14 15 15 14 14 12 12 10 9 7 8 8 7 6 7 7 8 7 6 7 7 8 8 7 5 5 4 4 5 4 4 4 4 4 4 5 4 3 4 4 4 3 4 4 4 4 4 4 4 3 3 3 3 3 2 2 2 2 2 2 1 2 2 1 2 2 1 1 1 1 2
6 13 9 6 5 5 4 6 7 8 5 7 8 3 2 1 7 3 5 4 4 6 5 12 14 15 14 15 15 14 14 14 13 12 11 9 9 10 9 8 8 9 8 8 7 6 7 7 8 8 6 5 4 5 4 4 4 4 4 4 4 4 4 3 4 3 3 4 4 4 3 4 4 4 4 3 3 2 2 2 2 2 2 2 2 2 1 0 1 0 1 2 2 2 1 1 2
3 4 9 11 12 9 5 9 7 7 5 8 9 5 3 2 3 3 4 6 5 7 8 11 15 16 14 14 13 12 14 14 14 11 10 9 10 11 10 9 9 8 8 8 7 7 7 8 8 7 6 7 5 5 4 4 4 4 4 4 4 4 4 4 3 3 3 3 3 4 4 4 4 3 4 3 3 2 1 1 1 2 2 1 1 2 1 1 0 1 2 2 2 2 2 2 2
5 6 6 7 7 6 4 5 8 7 4 3 7 4 3 1 3 3 7 9 7 10 9 12 13 15 13 14 14 11 11 10 10 11 14 13 11 11 11 10 10 9 9 9 7 6 8 8 8 7 7 6 6 6 5 5 5 5 4 4 4 4 4 4 3 3 3 3 3 3 4 4 4 3 4 3 3 3 2 1 1 1 2 2 1 2 2 1 1 1 2 2 2 2 1 1 2
5 3 5 6 5 6 4 8 7 6 4 6 9 7 2 5 6 3 9 9 9 11 11 12 14 13 13 13 12 11 11 11 10 10 12 10 9 9 11 10 10 9 6 8 8 8 9 9 8 8 7 6 6 6 5 5 4 4 4 4 4 4 4 4 3 3 3 3 3 3 3 4 3 4 3 3 3 2 2 1 2 2 2 2 2 2 2 2 1 2 2 1 1 1 1 1 2
3 1 3 4 5 3 3 5 5 3 4 10 9 2 6 11 7 5 9 10 10 11 11 12 12 12 12 12 12 11 11 11 12 11 10 10 10 10 10 10 10 9 8 7 9 9 8 7 6 6 7 7 7 6 5 5 5 4 4 4 4 4 4 4 3 3 3 3 3 3 3 4 4 3 4 3 2 2 1 1 2 2 2 2 2 1 1 2 2 2 3 3 3 2 1 2 2
0 0 2 1 2 4 1 2 7 3 2 9 2 2 6 6 7 6 9 11 13 13 11 12 12 12 12 12 11 12 12 12 13 12 11 11 10 9 10 9 10 9 8 8 10 10 9 8 7 6 8 7 8 6 6 5 4 4 5 4 4 4 3 3 3 3 3 3 3 2 3 3 4 4 4 4 3 2 2 2 2 3 2 1 0 1 2 2 2 2 2 3 3 2 2 1 3
2 0 2 4 2 3 1 5 8 4 2 7 1 3 6 4 8 9 9 10 11 14 13 12 12 11 12 12 12 12 12 12 12 12 12 12 11 10 11 11 10 10 11 10 9 9 9 9 9 8 9 9 8 7 6 5 5 4 4 4 4 4 4 4 3 3 3 3 3 3 2 3 4 4 4 4 3 2 2 2 3 2 2 1 1 2 3 3 2 2 3 1 1 3 3 2 1
4 1 1 1 0 2 1 1 6 4 7 5 5 4 4 2 4 10 10 11 11 12 13 13 13 11 11 12 12 11 11 12 11 12 13 11 11 10 10 11 11 11 10 11 10 10 9 9 10 9 10 10 8 7 6 5 4 5 5 5 5 4 4 4 3 3 3 3 3 3 3 2 3 4 4 4 4 3 2 2 3 2 1 2 1 2 2 2 2 3 2 2 0 1 0 1 1
2 1 1 1 1 1 0 1 6 3 9 6 8 3 2 2 2 8 10 12 11 11 13 13 12 11 10 9 12 12 12 13 14 13 14 13 10 11 11 11 11 10 10 11 11 11 10 9 9 8 8 9 8 7 6 6 5 4 4 4 4 5 5 4 3 3 3 3 3 4 3 3 3 3 4 4 4 3 3 3 2 2 2 2 2 2 1 1 2 2 1 2 1 1 1 2 1
2 0 1 1 2 0 1 3 5 6 4 6 6 7 10 2 4 7 9 11 11 11 13 14 13 12 11 9 11 13 13 14 14 13 14 13 12 11 10 11 11 11 9 11 10 9 8 8 8 8 9 9 8 7 5 5 4 4 3 4 4 5 4 4 4 4 4 3 4 4 4 3 3 3 4 4 4 3 3 2 2 2 2 2 2 1 1 1 2 2 2 1 1 1 0 1 1
3 3 2 1 2 1 1 3 1 12 6 5 6 8 11 6 6 6 9 11 11 10 10 10 11 11 11 9 9 11 12 14 12 12 13 12 11 11 10 10 10 10 10 10 11 10 9 8 7 7 7 8 7 6 5 5 4 5 5 3 3 4 4 4 4 4 4 4 3 4 4 4 3 3 3 3 3 3 2 3 3 2 2 2 2 2 1 1 1 2 2 2 2 1 2 1 1
3 2 3 1 0 4 4 3 3 10 4 7 10 11 10 5 7 9 10 9 8 9 11 12 12 13 13 11 9 11 12 13 11 13 13 14 13 12 11 10 10 10 10 11 11 11 11 11 10 10 8 8 7 7 6 6 5 5 3 5 6 5 5 4 4 4 4 4 4 4 4 4 4 4 3 4 4 3 3 2 2 2 2 2 2 3 1 1 1 2 1 1 2 1 2 2 1
2 1 1 1 2 5 4 3 1 6 7 6 8 6 7 7 6 9 9 10 11 12 12 13 14 14 13 14 11 11 10 7 10 11 12 13 12 13 11 10 10 11 9 11 12 12 12 11 11 10 7 8 8 8 7 7 6 6 6 6 5 4 5 5 4 4 5 4 5 5 4 4 4 4 4 4 4 4 3 3 2 3 2 2 2 1 0 1 2 1 1 0 1 2 1 1 0
1 2 1 1 4 5 8 3 3 4 6 5 2 7 10 8 7 8 12 14 13 14 14 14 14 13 12 13 12 9 9 10 11 13 13 13 14 13 12 11 11 13 13 13 12 11 11 11 10 9 8 9 8 8 7 7 5 5 5 4 6 4 3 5 5 5 5 5 4 4 4 4 5 4 4 4 4 4 4 4 3 2 2 2 2 1 1 2 1 1 2 1 1 1 1 1 1
2 1 1 5 3 1 3 1 3 4 6 3 3 7 6 4 5 10 12 14 12 12 11 10 11 14 15 17 14 11 12 12 13 13 15 14 14 13 12 11 12 11 11 11 11 12 10 10 10 10 9 9 8 8 8 5 4 4 3 5 4 4 4 3 3 2 3 4 4 4 4 4 5 4 4 4 4 4 4 4 3 3 3 3 3 3 2 3 1 1 1 2 1 0 2 1 2
1 3 3 2 2 3 6 4 3 2 3 2 1 1 2 4 5 5 8 10 8 9 10 9 9 10 10 8 9 10 12 13 13 13 14 14 14 14 14 13 12 12 12 12 12 12 10 12 11 12 10 10 9 9 8 6 5 5 4 3 3 3 4 3 4 3 4 4 3 4 5 5 5 5 4 5 4 5 4 4 4 4 3 3 3 3 3 3 2 2 2 1 1 1 1 2 2
3 4 7 6 3 4 5 3 4 5 4 3 3 3 3 3 7 9 5 7 9 9 12 13 12 11 10 12 14 12 11 11 13 14 14 15 15 14 14 14 13 12 13 12 12 13 12 10 10 10 9 9 9 9 9 8 7 7 7 7 6 5 5 5 6 7 5 5 5 3 4 5 5 4 4 5 4 4 5 4 4 4 3 3 3 3 2 2 2 2 2 2 2 1 1 2 2
0 6 8 8 6 5 3 1 2 2 1 3 0 5 6 3 4 5 6 9 12 9 13 14 11 11 12 12 12 13 13 12 12 12 12 14 14 15 15 14 14 14 13 12 11 12 12 11 11 11 10 10 9 9 9 8 7 7 9 9 8 9 8 6 6 5 6 6 4 5 5 4 5 5 5 5 5 4 4 4 4 4 3 3 3 3 3 3 2 2 2 2 2 2 2 1 1
3 3 4 7 7 6 5 3 4 5 1 3 0 3 1 5 5 4 7 9 10 10 12 13 13 12 13 13 13 13 14 14 13 14 13 15 15 16 16 15 14 14 13 11 11 11 13 12 12 12 10 10 10 9 9 9 9 8 8 7 7 7 7 7 7 6 5 5 5 5 4 4 5 5 5 5 5 4 4 4 4 4 3 3 3 4 4 2 2 1 2 2 2 2 3 2 2
3 4 8 6 7 7 4 4 5 2 1 6 2 1 0 3 4 1 9 7 8 14 14 14 14 14 14 15 15 15 15 15 15 14 15 15 16 16 15 15 15 14 13 13 12 12 12 11 12 11 11 10 10 11 11 10 9 9 9 7 7 6 5 5 5 4 5 5 6 4 5 5 4 5 5 5 5 5 5 5 5 4 4 4 4 3 3 3 4 3 2 2 2 2 2 2 1
5 5 3 3 3 2 4 4 3 1 2 4 3 3 2 5 5 1 2 4 10 14 15 15 15 16 16 15 16 16 14 13 14 16 16 15 15 16 16 15 14 14 13 12 12 11 11 10 11 12 12 10 10 12 12 11 10 9 8 8 9 6 4 4 5 6 6 5 6 6 5 5 5 5 5 5 5 5 5 5 5 5 5 4 4 4 3 3 3 3 3 2 1 2 2 3 3
3 6 2 0 2 2 3 4 2 3 1 6 7 5 4 2 4 6 9 9 13 10 8 11 13 14 15 16 16 15 15 15 14 15 15 16 15 15 14 16 16 14 12 13 12 12 12 12 13 14 13 10 10 12 12 13 11 9 9 9 9 8 7 6 6 5 5 6 6 6 6 5 5 5 5 5 5 5 5 5 5 5 4 4 4 4 4 4 3 3 2 2 3 3 2 2 2
4 1 2 2 1 3 2 1 2 2 4 7 3 8 4 4 3 4 9 6 3 7 12 16 17 18 17 16 15 16 16 15 15 15 16 15 14 13 14 15 15 15 14 14 13 12 12 12 12 14 12 12 11 11 12 12 11 10 9 9 9 8 8 7 9 9 8 8 8 7 6 5 5 4 4 5 5 5 4 5 5 4 4 4 5 4 4 3 3 2 3 3 3 2 2 2 2
6 4 3 5 2 1 2 0 2 4 4 2 2 8 3 5 4 3 5 10 12 8 8 8 13 17 17 17 18 16 15 15 15 15 15 15 15 15 15 16 15 15 15 15 15 14 13 13 14 14 14 13 12 12 13 13 12 12 11 10 9 8 8 9 8 8 8 8 7 7 6 6 5 5 6 5 5 6 5 5 5 5 5 5 5 4 4 4 3 2 3 3 3 3 3 3 3
7 6 6 5 2 2 3 1 1 2 6 2 0 2 1 3 3 2 7 7 6 8 8 6 5 10 14 15 15 15 15 16 16 16 16 16 16 15 16 15 16 15 16 16 16 14 13 13 14 15 15 14 12 12 13 13 13 13 11 10 9 8 9 9 8 8 8 7 7 8 7 7 7 7 6 7 6 6 5 5 5 5 5 5 5 5 4 4 3 3 3 3 4 4 3 4 4
3 1 10 8 5 3 2 3 4 7 7 1 3 3 3 3 5 2 4 4 4 6 9 9 5 6 9 12 11 13 14 14 15 15 16 17 16 16 15 16 16 16 17 16 15 14 14 14 14 15 14 13 13 13 12 13 12 12 11 10 9 8 8 8 8 7 7 8 7 7 7 7 7 7 7 7 6 6 6 5 6 5 5 5 5 4 4 3 3 3 3 4 3 3 3 3 3
2 4 4 5 5 4 2 6 5 5 4 2 1 3 4 5 2 1 6 6 8 12 13 13 13 8 6 9 12 13 14 15 15 16 17 17 17 16 15 15 16 15 17 16 16 15 15 14 15 16 16 15 14 13 13 13 12 11 11 11 11 10 8 7 6 6 6 7 8 8 8 7 7 6 6 6 6 6 6 6 5 6 5 5 5 5 4 4 4 4 3 3 5 2 3 4 4
2 2 3 3 2 3 4 1 1 3 5 5 1 3 3 5 1 10 16 14 15 16 18 16 13 14 5 10 13 14 14 14 15 16 17 17 16 16 16 16 16 16 16 17 17 16 16 15 15 15 15 14 15 15 14 13 12 11 12 12 10 9 10 10 9 10 9 8 7 7 7 8 7 6 6 5 6 6 6 6 6 5 6 5 5 5 5 4 4 4 4 4 5 4 4 5 3
1 2 3 4 2 3 3 3 3 3 4 2 2 1 4 8 3 12 16 19 18 18 16 15 13 11 11 6 8 12 14 15 15 15 14 16 17 18 17 16 18 18 19 18 18 17 16 16 16 17 15 15 14 14 13 12 12 12 11 12 11 11 11 11 9 9 8 7 7 6 6 6 8 7 6 5 6 7 6 7 6 6 5 5 6 5 5 5 4 4 4 4 4 3 4 3 3
5 5 1 3 1 1 2 4 1 3 2 2 2 1 2 4 6 11 18 17 19 18 16 15 16 16 13 11 10 10 12 13 14 15 14 15 16 17 17 18 18 18 18 18 17 17 15 15 16 17 18 17 17 14 13 12 12 11 10 12 13 12 11 10 9 7 6 8 9 8 8 8 6 6 6 6 6 6 6 7 6 6 6 6 6 6 5 5 5 4 4 4 3 4 4 5 3
5 1 5 4 3 1 2 1 2 5 3 4 2 4 3 4 5 9 9 13 14 16 15 15 14 14 14 12 12 9 12 14 14 15 16 16 17 17 17 17 17 17 17 16 17 16 18 17 16 16 15 14 15 16 15 14 13 12 11 10 10 10 10 10 9 7 8 9 9 9 9 8 9 6 7 6 6 6 7 7 6 6 6 6 6 6 6 5 5 5 5 4 4 5 5 5 4
9 11 7 7 3 3 0 2 2 0 4 3 5 2 2 5 5 5 9 10 12 13 14 12 12 14 14 15 13 11 12 14 14 15 15 16 17 16 16 15 15 15 14 14 15 18 17 16 16 17 17 16 15 15 14 13 12 12 12 12 12 11 11 10 10 9 9 9 8 8 8 9 6 7 6 7 7 7 7 7 7 6 7 7 7 6 6 6 6 6 5 5 5 5 5 5 4
7 5 7 3 7 5 1 1 2 3 3 2 4 5 0 3 5 5 8 10 10 12 12 12 14 14 16 15 17 13 9 11 12 12 11 12 13 14 14 13 13 13 14 16 16 15 15 16 16 16 15 15 15 15 14 12 11 11 13 12 12 11 10 9 11 10 10 9 8 8 8 6 8 8 7 8 8 6 6 7 7 7 7 7 7 7 6 6 6 6 6 4 5 6 6 5 4
Wind_Direction
160 123 91 103 90 99 109 302 38 301 61 313 324 173 266 225 308 323 145 140 121 27 176 109 113 119 157 188 143 116 15 145 182 140 207 170 131 129 135 133 124 127 135 144 166 167 168 191 146 132 127 123 122 122 122 120 118 116 115 116 115 114 112 110 109 110 111 111 111 112 113 112 111 112 117 115 112 115 120 123 116 119 101 85 76 80 109 119 115 115 116 119 116 112 101 104 110
125 108 99 116 112 147 12 128 106 338 78 302 247 132 260 36 183 222 174 149 71 138 165 104 97 94 76 102 126 118 43 32 30 100 90 115 110 109 142 137 138 137 137 147 166 181 176 194 138 132 129 125 124 124 121 117 114 114 114 114 111 108 108 110 111 109 106 104 104 105 106 107 111 109 108 112 113 121 118 103 104 104 110 112 110 110 107 99 111 107 112 125 117 109 108 109 108
119 123 110 73 117 222 339 81 2 258 324 273 266 210 359 263 230 50 75 92 116 119 111 109 98 67 96 101 51 13 213 69 100 111 112 131 126 153 143 140 140 133 138 149 170 170 186 162 132 132 130 126 124 122 120 119 119 118 116 113 113 113 114 113 111 107 103 100 100 101 104 106 106 110 111 106 107 108 103 110 119 112 108 102 89 86 89 94 82 89 100 98 98 103 112 118 118
122 147 148 161 53 143 77 27 154 205 238 247 301 270 233 246 311 97 87 98 119 128 122 120 84 303 101 66 114 79 97 108 134 136 132 152 141 141 141 139 136 126 131 152 162 171 174 138 132 131 130 128 126 124 124 124 123 122 119 116 115 116 117 115 110 107 104 103 100 97 98 102 104 102 106 109 113 105 105 101 98 107 100 95 95 87 87 87 89 112 117 80 74 96 107 108 106
142 179 151 204 134 358 97 195 266 215 239 180 220 236 228 220 234 116 100 101 134 147 91 109 89 345 82 108 166 122 149 107 134 137 116 98 121 135 137 135 135 135 140 148 155 157 148 139 135 134 133 131 129 128 127 126 123 121 117 117 118 121 122 118 112 107 107 104 101 99 98 98 100 106 113 107 102 106 100 108 99 102 103 103 104 103 104 100 110 114 102 103 119 114 107 109 113
95 135 256 333 68 240 39 317 245 228 229 152 264 251 215 186 164 124 113 72 71 85 90 91 133 153 55 18 2 98 129 141 160 125 132 134 136 138 136 138 133 131 135 129 139 136 141 142 139 137 135 135 134 132 129 125 122 121 121 123 128 127 125 119 112 111 110 104 99 97 96 96 96 100 94 93 97 97 99 98 101 89 92 93 91 96 95 110 109 105 105 119 118 109 113 116 116
155 137 233 228 349 75 205 243 254 244 259 181 246 261 219 176 146 136 117 94 34 68 337 107 118 108 87 121 73 68 89 115 144 138 117 136 134 136 139 139 132 130 125 123 121 128 145 143 142 139 138 138 136 133 131 129 127 126 128 130 130 127 122 119 115 113 108 101 95 93 92 90 90 92 95 100 102 97 101 99 89 91 94 103 98 122 132 111 111 111 107 106 109 116 116 112 118
175 329 188 94 276 313 274 260 264 195 281 175 189 261 236 174 148 153 143 133 158 127 34 124 81 87 71 24 113 94 67 74 91 105 120 132 135 136 140 140 134 134 135 122 119 128 147 143 146 142 140 139 138 136 134 134 133 135 136 134 129 124 121 119 116 111 105 95 87 84 87 85 86 92 92 92 91 92 89 84 84 91 82 82 123 97 83 82 74 75 92 100 120 119 115 118 112
289 167 323 75 22 191 277 253 266 204 262 148 213 259 257 164 150 143 89 83 99 73 104 134 104 83 117 94 81 91 79 95 97 117 129 134 136 138 139 141 138 134 132 123 118 111 129 149 150 147 143 141 141 140 138 137 137 137 135 132 126 121 119 116 112 108 101 96 90 83 82 84 85 87 89 86 83 91 92 94 94 96 103 116 88 85 79 77 75 75 99 112 106 111 114 108 113
307 101 314 101 108 287 278 276 210 248 233 12 326 215 197 149 158 91 122 97 102 115 93 31 72 113 113 103 112 109 118 111 118 123 131 138 139 138 134 137 133 133 134 126 122 123 138 151 150 148 145 145 145 142 140 140 138 136 134 133 132 125 121 116 112 111 109 104 98 94 88 85 89 91 88 82 89 90 92 99 107 102 109 102 98 99 95 81 85 96 88 96 107 113 110 111 116
91 165 204 9 271 280 251 282 259 293 324 54 300 76 35 124 153 120 114 109 119 120 120 116 85 116 111 91 61 87 119 118 132 140 141 140 138 141 133 130 128 131 133 131 132 132 144 148 150 152 150 150 149 144 143 142 140 138 136 138 135 128 122 117 113 118 115 112 107 99 101 99 88 82 91 95 88 95 97 108 107 113 108 109 97 89 94 100 93 82 92 95 101 103 113 119 112
48 305 89 224 242 217 258 263 302 294 42 84 273 124 257 157 157 120 120 118 146 125 141 175 143 124 95 113 118 127 127 126 132 136 141 138 134 133 130 127 127 130 130 132 133 132 133 128 135 148 148 151 152 147 146 144 142 141 142 142 137 134 128 124 124 121 121 120 115 111 107 109 105 103 100 102 104 102 107 104 108 105 107 101 89 82 76 68 91 103 93 91 89 94 94 93 97
221 355 96 245 240 153 262 284 263 314 45 296 76 119 225 182 160 128 126 122 145 128 147 184 150 164 108 122 118 129 133 132 134 140 140 133 130 128 125 125 127 129 131 130 133 135 133 138 127 138 160 163 153 151 149 145 146 149 147 143 144 141 136 130 132 134 131 126 126 121 118 116 116 118 115 106 102 103 111 108 106 106 104 93 85 75 74 78 66 69 90 89 90 96 93 98 105
151 198 116 273 79 260 264 260 280 348 348 115 85 147 216 37 23 122 129 127 147 119 146 137 129 112 100 116 135 143 138 138 138 138 128 125 125 126 126 126 128 130 127 131 132 137 133 144 148 153 173 150 150 152 151 150 152 154 152 148 150 147 143 141 144 143 138 131 127 126 124 117 115 117 111 106 111 116 112 117 121 108 94 89 82 81 73 65 69 62 69 83 90 87 88 90 96
226 295 41 242 285 344 239 209 264 17 73 129 141 153 115 30 42 44 94 127 102 61 111 82 144 94 189 168 154 163 150 144 141 128 123 122 123 124 125 124 122 124 124 130 133 139 142 142 136 139 129 118 110 106 111 154 158 157 155 154 153 151 150 148 145 147 135 133 133 128 122 124 135 115 108 106 108 119 109 103 95 86 90 86 82 83 84 78 68 63 62 73 82 84 94 96 94
214 292 251 290 292 315 274 225 343 88 88 143 173 144 98 79 27 74 13 344 113 359 117 132 284 95 146 174 143 141 142 142 131 125 123 123 121 118 120 121 122 120 121 128 136 130 127 121 116 110 105 108 106 96 108 151 163 159 155 155 156 155 152 147 145 132 140 119 127 104 103 93 111 118 117 111 114 89 90 96 93 93 91 91 82 80 79 88 88 74 68 68 84 90 81 80 78
352 50 280 231 293 182 260 213 145 284 138 152 164 171 139 140 41 60 293 15 114 91 14 92 131 89 146 117 133 134 140 131 125 126 124 125 129 126 122 122 124 126 130 138 137 130 121 106 111 108 107 108 101 92 80 121 151 155 157 160 157 158 137 114 124 130 125 116 115 123 100 64 70 79 65 72 76 91 90 94 96 96 100 90 84 86 94 83 80 77 74 67 66 68 61 68 84
110 223 218 275 250 241 237 215 193 161 137 164 174 198 137 138 152 136 102 63 61 68 71 66 56 81 104 116 122 135 137 131 134 135 137 136 141 140 141 144 143 154 148 142 141 136 116 113 122 115 105 101 98 91 98 121 142 115 68 98 115 116 132 130 111 94 91 74 109 95 70 78 74 99 98 76 30 66 80 92 90 96 85 85 86 87 88 89 85 88 77 74 69 68 51 36 59
218 219 185 249 199 238 187 258 147 134 181 157 175 196 158 148 143 187 138 129 126 99 90 99 90 98 110 121 134 142 138 138 142 143 147 149 152 153 151 149 150 151 154 149 142 141 130 123 125 115 111 108 110 105 110 115 93 85 66 91 107 118 113 107 87 87 71 90 85 77 77 71 73 78 90 97 92 92 95 97 103 95 95 97 99 88 88 90 88 88 90 81 68 54 45 41 57
220 262 249 245 223 260 276 196 190 45 134 150 170 180 155 144 155 187 145 141 139 137 134 121 124 133 134 137 144 144 144 144 147 148 150 154 157 155 155 155 157 162 155 155 150 137 140 147 143 123 127 125 119 109 103 104 89 98 97 89 89 88 92 87 95 99 89 88 87 86 80 76 69 62 92 80 56 36 47 70 75 82 88 87 70 53 61 79 77 72 71 58 46 42 38 48 57
179 201 222 235 216 286 318 111 130 133 147 149 163 132 132 173 143 165 133 122 165 162 171 153 149 145 146 148 148 149 151 152 151 153 152 155 155 157 159 161 161 155 150 140 144 154 152 156 147 133 123 127 123 118 122 113 102 103 100 98 92 87 95 89 97 99 101 94 93 91 86 77 69 68 67 58 54 52 62 55 46 46 57 54 63 59 55 60 62 60 44 48 47 43 49 51 54
304 232 257 277 301 309 278 119 123 118 103 132 142 161 166 110 129 164 157 158 188 178 170 152 148 147 150 152 152 154 155 157 158 158 160 162 162 158 152 140 127 131 144 152 163 158 163 163 157 142 133 131 130 130 134 145 127 116 112 113 101 93 101 101 97 105 103 99 100 94 82 78 75 76 67 62 53 60 62 63 53 59 60 54 48 67 48 49 50 47 50 54 46 51 65 72 69
263 268 253 253 258 266 232 146 140 139 138 144 164 173 109 155 159 161 182 131 100 132 136 151 152 154 153 147 150 159 160 161 165 165 161 163 165 161 157 156 158 158 163 158 159 158 161 164 154 138 142 133 124 133 132 134 122 124 116 119 112 108 105 103 99 99 100 103 95 98 93 88 83 87 76 69 56 59 67 60 63 56 68 67 51 57 44 37 33 34 40 53 46 65 71 58 88
241 272 288 272 235 244 228 156 154 164 159 156 127 130 157 150 161 165 165 77 110 129 120 147 148 148 149 149 161 161 162 162 167 166 165 168 168 165 161 159 160 147 150 153 160 165 162 167 157 151 144 140 134 140 133 129 128 125 146 134 111 134 117 107 105 103 105 104 105 99 101 100 108 93 91 77 69 69 65 65 68 60 59 79 74 68 37 16 13 25 7 353 4 39 94 129 136
218 251 249 260 257 250 243 161 160 148 124 111 125 163 187 173 145 142 161 127 125 132 123 142 147 152 153 152 159 160 158 159 164 166 163 162 164 154 155 152 154 155 159 162 159 162 163 163 161 157 154 148 138 144 143 139 137 129 133 120 133 141 118 120 121 114 108 113 103 110 114 103 95 101 95 87 75 61 53 54 57 62 44 46 51 47 55 6 359 355 319 310 322 239 209 174 146
206 238 254 269 261 255 213 160 163 154 129 135 135 164 110 353 112 132 132 149 146 134 122 149 152 158 158 161 163 164 162 163 163 167 170 161 161 159 166 164 160 168 169 159 160 164 160 154 165 163 160 151 147 153 143 149 151 146 137 139 150 134 135 130 128 118 108 113 102 109 109 115 114 116 107 101 93 65 55 46 49 32 42 24 47 346 1 31 328 253 258 265 264 266 237 229 167
179 255 255 257 262 267 200 176 168 150 131 161 142 140 127 208 186 191 147 146 142 136 141 157 159 164 160 162 164 166 163 166 168 161 161 166 167 170 169 166 170 169 157 166 166 165 160 158 167 163 161 167 148 160 159 159 156 154 147 141 146 130 139 136 126 124 117 120 115 106 119 122 120 116 117 121 104 104 68 62 36 32 356 9 29 301 329 309 272 266 277 276 273 256 231 223 164
288 266 297 282 293 265 195 136 140 129 124 175 120 89 78 258 341 224 159 150 154 145 149 162 166 167 163 163 166 165 167 163 160 167 173 173 176 173 172 173 172 165 167 171 169 162 162 164 166 164 166 166 165 166 173 170 173 160 149 145 146 135 141 139 137 136 146 134 122 117 128 128 128 123 126 127 127 130 137 86 17 7 288 299 302 297 312 332 293 277 247 244 252 252 266 159 145
262 283 309 300 351 26 112 143 157 140 125 145 116 86 235 219 225 127 145 150 153 150 157 167 169 170 165 163 165 165 167 166 169 177 180 179 173 174 173 175 168 166 170 166 162 166 170 164 165 169 166 167 169 171 178 179 167 159 151 156 155 141 147 143 151 166 157 157 146 133 140 143 133 144 145 144 139 128 128 163 278 250 268 288 291 286 298 345 22 349 351 327 72 70 78 90 117
295 232 182 322 1 359 96 82 140 105 143 146 147 166 230 224 224 135 146 154 151 152 164 170 171 172 170 166 169 169 167 169 178 182 178 177 175 175 172 171 168 167 161 164 162 175 170 167 164 167 170 172 176 175 175 178 178 164 151 152 157 143 151 156 172 162 169 170 160 150 152 161 142 148 146 147 123 129 131 167 263 284 270 274 291 349 26 42 26 20 358 11 4 39 50 146 143
183 257 61 254 17 295 92 117 158 88 168 169 179 208 282 235 205 146 163 158 157 163 168 175 175 174 173 171 169 172 174 181 181 178 178 176 174 174 171 167 168 164 157 165 174 172 170 167 164 170 172 172 179 180 182 184 178 166 158 158 164 156 156 165 172 163 182 173 159 156 160 174 149 152 151 150 154 141 161 241 274 264 278 254 69 84 115 54 51 54 21 33 349 20 53 155 164
346 23 304 317 177 286 342 109 172 130 188 204 125 294 249 249 192 151 168 164 164 165 171 179 181 177 175 175 170 174 180 184 181 179 178 176 174 174 173 173 170 168 168 167 167 169 172 167 166 169 169 173 182 182 185 181 178 173 162 166 157 163 158 177 182 179 172 168 166 163 168 187 152 155 148 147 151 159 171 224 258 275 230 126 89 103 92 68 52 60 46 112 42 355 357 11 103
354 105 245 257 81 276 27 200 184 123 139 205 216 227 319 316 170 154 167 165 172 169 176 180 185 184 178 177 175 176 177 185 185 182 180 177 179 175 174 172 176 174 165 166 168 169 172 170 172 169 171 175 179 184 178 175 168 174 169 170 166 166 174 183 184 168 167 175 176 172 171 195 150 156 150 149 155 164 177 218 253 229 180 137 88 71 77 72 56 54 44 33 45 138 327 23 77
324 353 156 227 162 165 254 327 183 139 143 193 231 257 227 301 181 159 172 171 169 177 180 183 188 188 189 175 178 177 181 183 188 184 181 179 179 177 175 175 175 173 172 169 170 171 174 172 173 172 171 172 177 182 179 172 173 167 172 173 167 180 188 175 169 168 183 183 175 185 171 192 165 167 150 150 155 166 173 195 207 186 144 94 77 44 54 80 66 77 59 29 355 153 195 82 96
204 318 53 352 333 170 199 161 219 156 170 179 211 248 265 22 137 177 178 179 175 183 183 184 187 191 196 187 180 183 184 187 191 185 179 179 178 178 176 177 175 175 176 172 170 170 168 172 171 177 171 173 176 175 169 163 153 155 160 169 180 194 192 180 168 179 182 177 186 178 165 189 184 170 150 146 150 163 146 170 178 163 121 102 77 45 22 43 83 82 77 18 341 291 244 193 126
140 136 147 121 43 303 184 250 199 177 173 208 184 216 242 209 174 181 188 189 185 183 182 187 190 194 199 200 188 187 189 193 187 183 178 179 179 177 176 176 177 178 175 173 171 169 169 171 174 174 171 172 163 166 157 153 154 168 172 168 187 202 196 184 185 190 171 180 180 167 169 178 190 165 151 142 144 146 157 181 165 142 127 121 127 152 211 349 119 79 50 31 348 53 26 349 73
126 107 116 145 208 280 282 259 221 188 177 220 209 222 233 228 188 188 192 185 188 182 186 191 194 192 197 206 197 193 192 194 181 181 180 181 181 179 176 174 178 178 175 175 173 175 174 174 174 182 176 169 163 169 172 166 171 170 165 185 197 191 190 190 189 187 185 179 170 167 168 175 175 166 152 147 156 171 168 161 142 131 125 146 173 197 190 185 114 109 103 27 27 60 55 1 63
182 136 139 271 163 268 233 226 246 186 170 245 228 237 243 229 198 191 183 188 197 194 192 195 195 195 197 201 201 196 192 177 175 182 185 182 183 181 177 177 175 174 183 177 180 180 177 173 179 180 172 176 173 178 180 179 182 186 171 183 174 173 177 181 193 197 192 177 167 167 171 165 168 172 157 155 154 165 161 170 174 172 171 185 186 149 165 185 109 92 95 49 40 82 83 314 265
128 193 153 353 264 247 279 289 265 186 177 283 157 215 239 226 200 189 185 193 200 200 198 195 188 193 199 203 204 191 178 185 183 186 183 186 185 181 180 181 181 183 179 181 184 179 177 177 179 176 180 182 181 177 177 189 189 176 172 175 173 155 200 194 194 191 177 170 167 164 159 161 166 170 160 158 155 172 171 166 183 167 174 188 189 284 288 237 101 92 85 105 347 45 60 255 278
161 103 112 219 231 33 308 323 16 146 169 225 207 211 258 236 204 196 196 195 202 201 197 197 197 195 197 201 198 190 188 184 187 184 187 187 186 183 184 184 184 182 181 183 181 182 182 182 177 177 182 186 183 180 183 179 168 164 161 154 166 151 170 175 145 108 153 148 168 159 154 162 170 169 162 161 161 167 169 177 161 171 182 186 181 197 217 236 162 123 100 101 104 3 13 346 357
235 164 164 185 210 227 185 259 6 173 247 99 67 29 313 199 190 225 211 197 197 193 193 201 205 210 202 201 205 201 196 189 188 185 187 187 187 188 188 187 183 184 185 187 183 184 186 185 182 178 179 186 186 182 177 156 143 135 120 88 108 85 55 114 132 154 177 183 150 164 181 167 172 171 166 170 168 168 168 165 171 173 172 178 163 191 202 218 196 157 150 127 104 137 55 326 333
317 216 190 206 188 225 266 334 17 24 330 246 139 5 300 260 217 203 173 176 202 188 195 201 202 202 191 195 202 200 202 196 193 189 187 187 188 188 191 187 186 188 189 189 186 185 183 183 182 179 178 182 186 182 170 160 166 160 151 154 164 177 167 164 185 187 176 182 197 167 158 175 176 175 168 173 176 160 169 174 170 171 176 179 180 191 201 205 208 197 183 176 139 136 111 65 327
106 271 192 188 192 213 240 337 63 334 223 300 307 156 263 337 239 208 183 191 195 189 200 203 200 199 198 200 199 197 197 197 199 196 185 187 190 190 191 189 190 189 193 187 186 186 185 181 180 180 180 181 182 180 170 167 166 171 175 180 183 187 182 197 188 184 179 193 177 165 178 174 181 178 178 176 176 172 162 169 171 180 189 178 188 162 195 217 220 210 163 169 172 129 102 75 275
229 248 175 180 183 212 230 195 172 231 252 314 1 140 206 314 290 209 184 182 198 204 205 204 202 199 200 202 198 196 197 196 195 197 191 189 189 191 192 191 190 193 188 185 186 185 186 182 180 182 182 181 179 173 173 178 179 180 181 180 185 193 194 189 183 182 182 175 175 183 162 186 184 186 178 178 178 175 166 172 173 175 189 189 194 201 204 211 213 225 197 177 146 145 138 144 265
210 230 152 169 187 203 199 179 203 218 35 286 321 126 289 267 273 305 157 171 209 214 208 206 203 201 203 203 201 199 197 196 195 196 196 190 191 193 191 191 193 190 188 187 188 187 186 182 181 182 185 180 178 173 174 184 185 185 185 179 186 198 187 177 168 171 174 171 184 179 179 182 188 188 187 180 178 176 182 177 176 179 189 199 208 202 201 193 205 213 212 183 174 152 154 145 139
243 176 139 133 132 132 148 184 199 296 93 264 255 186 155 284 285 101 173 213 218 216 211 207 202 201 201 201 202 200 197 197 200 200 197 195 190 192 191 188 188 192 189 188 189 184 183 180 182 183 188 184 178 177 177 182 189 186 184 185 189 186 175 156 161 173 175 173 189 191 190 179 189 196 194 186 180 183 187 178 178 185 195 196 209 207 191 197 199 199 207 216 183 195 158 166 199
133 129 130 67 42 46 31 71 110 55 279 250 226 201 146 315 249 185 153 215 210 210 211 211 209 209 205 202 200 198 196 195 198 201 201 200 192 188 184 189 191 189 186 185 188 187 184 184 184 186 190 184 179 182 179 183 187 188 191 187 188 181 176 167 166 179 172 175 191 195 187 196 185 197 186 193 192 185 188 187 185 191 189 193 206 195 202 206 201 193 188 189 206 207 180 170 227
169 138 125 101 306 28 60 345 39 168 273 260 239 177 126 160 292 270 250 304 312 214 206 202 204 204 201 200 200 199 195 195 197 197 201 200 196 189 187 190 189 189 185 186 189 187 187 188 186 188 189 186 183 184 183 185 185 191 195 188 187 183 173 177 184 184 184 187 189 192 196 185 198 196 189 196 200 194 189 195 197 189 188 188 207 205 207 202 192 177 179 190 212 201 168 174 203
135 115 86 134 257 65 257 58 192 193 198 261 86 130 53 233 223 272 313 307 301 304 286 258 218 207 203 199 197 196 195 193 194 197 197 197 197 191 190 191 188 187 189 187 187 187 188 189 188 187 191 189 188 183 186 187 187 191 193 192 190 177 181 184 189 189 185 189 189 189 183 195 190 200 203 198 201 193 191 192 191 191 193 199 205 196 212 189 183 179 190 209 214 212 196 185 198
119 144 151 134 161 160 177 259 247 340 285 287 343 262 172 237 313 318 14 334 323 327 314 279 238 225 213 205 198 196 194 193 194 195 196 197 197 194 191 189 188 190 192 188 186 187 187 189 189 189 192 190 188 187 189 188 193 192 191 192 189 178 187 188 190 190 188 189 185 193 190 194 194 201 194 205 195 185 194 199 196 202 199 195 196 200 200 194 176 186 191 210 229 226 191 189 208
206 141 159 173 145 155 191 179 169 188 196 256 297 123 225 162 178 57 353 298 335 3 2 352 305 222 212 211 205 201 196 195 194 195 197 197 197 192 189 189 189 191 191 188 187 187 186 190 189 191 192 192 189 190 189 193 195 194 189 191 187 186 189 191 194 191 185 185 191 193 199 200 200 203 202 204 186 186 192 191 196 198 199 198 191 191 200 190 185 180 195 222 242 225 216 200 209
222 173 80 94 211 133 177 201 149 174 138 46 219 199 183 160 205 311 10 355 14 13 8 3 360 333 201 188 194 199 200 199 195 196 197 197 196 193 189 189 189 189 189 189 188 186 188 191 189 191 190 188 191 191 193 194 196 195 191 188 191 191 193 192 191 191 193 191 190 193 199 202 207 202 203 192 192 186 188 193 194 202 195 196 195 195 190 184 185 189 207 209 239 213 214 213 218
211 97 152 168 144 104 83 68 11 101 66 185 231 320 329 288 355 355 355 355 3 8 4 358 355 348 290 197 193 197 200 199 198 198 197 196 194 194 192 188 189 187 187 190 189 187 187 187 188 191 193 191 192 192 193 194 194 193 196 193 189 190 193 194 197 196 192 194 191 197 200 205 199 201 200 190 187 189 191 190 196 200 195 193 192 195 191 191 187 194 199 199 225 218 207 218 209
102 63 238 300 151 130 125 176 342 56 140 214 34 107 346 18 245 352 347 359 354 360 358 346 345 351 360 284 222 202 199 199 201 201 200 197 195 193 192 191 189 187 188 189 189 186 186 187 187 188 190 191 194 193 194 194 193 196 196 195 193 194 197 201 201 199 193 185 195 199 204 198 206 203 198 191 186 184 194 195 196 200 195 189 195 188 186 190 184 199 201 208 220 189 217 229 215
99 152 316 140 138 189 311 101 110 106 179 134 18 9 69 31 315 343 358 353 348 346 346 349 350 352 340 329 289 231 205 199 196 197 197 198 198 196 194 193 190 189 188 187 186 185 186 188 190 189 190 191 189 191 194 194 194 196 196 197 195 197 199 202 200 194 185 193 197 199 200 211 209 204 202 197 187 188 187 200 198 196 192 197 192 192 182 182 184 195 197 211 201 187 206 225 214
31 6 28 1 95 107 96 189 173 117 207 94 266 42 31 349 333 341 349 356 346 346 348 350 347 342 338 323 309 255 212 204 199 197 197 197 198 197 195 191 189 189 187 186 184 185 187 189 188 192 193 191 190 193 191 192 194 195 198 197 201 199 197 198 197 187 190 201 205 198 203 205 210 200 207 202 200 192 190 192 197 192 193 194 193 193 185 179 179 195 194 203 197 187 201 218 224
352 30 8 6 356 247 70 31 57 97 163 169 144 50 21 334 339 358 7 357 352 356 348 345 348 348 341 336 318 277 225 205 203 200 198 197 195 197 195 190 191 189 185 182 184 186 189 187 190 190 188 190 195 195 191 194 190 197 196 197 198 197 200 197 196 194 198 206 206 204 205 209 193 206 201 202 209 206 196 197 195 202 200 201 202 199 190 182 182 191 197 201 195 187 202 215 215
69 76 58 298 3 24 90 156 2 41 81 175 108 126 257 327 355 350 8 353 2 359 356 355 354 354 356 348 342 329 231 215 209 203 201 197 198 197 193 187 187 188 183 185 186 185 187 188 191 190 190 193 191 191 194 192 192 195 197 197 198 197 198 197 199 200 205 207 204 206 207 195 200 210 196 204 209 207 199 194 196 207 209 207 206 206 190 183 190 193 197 192 195 192 199 209 201